Terminal Aerodrome Forecast
Issued by NWS Twin Cities, MN

Home | Current Version | Previous Version | Text Only | Print | Product List | Glossary Off
Versions: 1 2 3 4 5 6 7 8 9 10 11 12 13 14 15 16 17 18 19 20 21 22 23 24 25 26 27 28 29 30 31 32 33 34 35

000
FTUS43 KMPX 271503 AAA
TAFMSP
TAF AMD
KMSP 271503Z 2715/2818 27003KT P6SM FEW050
     FM272000 24007KT P6SM SCT050 BKN250
     FM280600 19006KT P6SM VCTS BKN050CB BKN120
      TEMPO 2806/2810 3SM SHRA OVC050
     FM281200 22007KT P6SM BKN050=

USA.gov is the U.S. government's official web portal to all federal, state and local government web resources and services.